Location: Maccacari
(45.1333°N, 11.1333°E)
Time: 23:26:52
(UTC+00:00)

A-11 Canister half - Pass Details

Date: 30 January 2021
Orbit: 1525 x 1684 km, 47.3° (Epoch: 07 March)

Event Time Altitude Azimuth Distance (km) Brightness Sun altitude
Rises 12:16:28 0° 231° (SW) 4,665 12.3 26.4°
Reaches altitude 10° 12:19:31 10° 229° (SW) 3,684 12.0 26.3°
Maximum altitude 12:28:38 66° 150° (SSE) 1,652 9.9 25.9°
Drops below altitude 10° 12:37:58 10° 71° (ENE) 3,756 10.8 25.4°
Sets 12:41:06 0° 69° (ENE) 4,761 11.2 25.2°
